Simultaneous Nadir Overpasses (SNOs) Predictions

Prediction of SNOs between METOP-B and NOAA-19 Satellite Orbit:

Table of predicted SNOs for the next 14.0 days since TLE Epoch: 6/22/2024
Index Date (METOP-B) Time (METOP-B) Lat,Lon (METOP-B) SZA (METOP-B ) Date (NOAA-19) Time (NOAA-19) Lat,Lon (NOAA-19) SZA (NOAA-19 ) Distance(km) Time Diff (sec)
1 07/01/2024 05:45:08 -57.52,-112.20 140.57 07/01/2024 05:44:04 -57.52,-112.20 140.48 0.38 64
2 07/01/2024 06:35:05 59.86, 56.66 40.81 07/01/2024 06:34:23 59.85, 56.63 40.86 2.45 42
3 07/01/2024 07:25:06 -62.23,-134.25 137.71 07/01/2024 07:24:37 -62.25,-134.23 137.67 2.36 29
4 07/01/2024 08:15:15 63.89, 34.49 43.39 07/01/2024 08:15:08 63.88, 34.47 43.39 1.09 7
5 07/01/2024 09:05:34 -65.21,-156.95 135.71 07/01/2024 09:05:41 -65.21,-156.96 135.72 0.83 7
6 07/01/2024 09:55:40 67.02, 12.29 45.58 07/01/2024 09:56:08 67.02, 12.31 45.56 1.01 28
7 07/01/2024 10:46:06 -67.93,-179.31 133.76 07/01/2024 10:46:48 -67.95,-179.27 133.77 2.82 42



Historial Predications of SNOs between METOP-B and NOAA-19
